User: anonymous   Login
Location: Unspecified
(0.0000°N, 0.0000°E)
Time: 02:45:12
(UTC+00:00)
Language:

Relay 1 - Orbit

View from above orbital plane
View from above orbital plane
View from above satellite
View from above satellite

Ground track
Ground track

The orbit data is extracted from the following two-line orbital elements,

1   503U 62068A   18267.58426472 -.00000030 +00000-0 +00000-0 0  9996
2   503 047.5040 076.6332 2835995 036.1382 042.5809 07.78164869585744
Epoch (UTC): 24 September 2018 14:01:20
Eccentricity: 0.2835995
inclination: 47.5040°
perigee height: 1328 km
apogee height: 7429 km
right ascension of ascending node: 76.6332°
argument of perigee: 36.1382°
revolutions per day: 7.78164869
mean anomaly at epoch: 42.5809°
orbit number at epoch: 58574

The dashed part of the orbit path shows where the satellite is in the earth's shadow,  

DLR